Change the Weather History Date:

Wednesday, December 12, 2012

  Actual Average Record
Temperature  
Mean Temperature 34 °F -  
Max Temperature 41 °F 40 °F 65 °F (1971)
Min Temperature 28 °F 20 °F -2 °F (1988)
Degree Days  
Heating Degree Days 30    
Moisture  
Dew Point 21 °F    
Average Humidity 61    
Maximum Humidity 82    
Minimum Humidity 40    
Precipitation  
Precipitation 0.00 in - - ()
Sea Level Pressure  
Sea Level Pressure 30.35 in    
Wind  
Wind Speed 4 mph (NW)    
Max Wind Speed 8 mph    
Max Gust Speed -    
Visibility 10 miles    
Events      
Averages and records for this station are not official NWS values.
T = Trace of Precipitation, MM = Missing Value Source: NWS Daily Summary

Daily Weather History Graph

Daily Weather History Graph

Search for Another Location

Airport or City:

Trip Planner

Search our weather history database for the weather conditions in past years. The results will help you decide how hot, cold, wet, or windy it might be!

Date:

Astronomy

Dec. 12, 2012 Rise Set
Actual Time 7:07 AM EST 4:18 PM EST
Civil Twilight 6:35 AM EST 4:49 PM EST
Nautical Twilight 6:00 AM EST 5:24 PM EST
Astronomical Twilight 5:26 AM EST 5:58 PM EST
Moon 6:07 AM EST (12/12) 3:52 PM EST (12/12)
Length of Visible Light 10h 14m
Length of Day
9h 11m
Waning Crescent, 1% of the Moon is Illuminated
Dec 12
Waning Crescent
Dec 13
New
Dec 20
First Quarter
Dec 28
Full
Jan 4
Last Quarter

Hourly Weather History & Observations

Time (EST) Temp. Windchill Dew Point Humidity Pressure Visibility Wind Dir Wind Speed Gust Speed Precip Events Conditions
12:52 AM 34.0 °F 27.2 °F 19.9 °F 56% 30.20 in 10.0 mi NW 8.1 mph - N/A   Clear
1:52 AM 34.0 °F 29.8 °F 19.9 °F 56% 30.22 in 10.0 mi WNW 4.6 mph - N/A   Clear
2:52 AM 32.0 °F 28.7 °F 19.9 °F 61% 30.23 in 10.0 mi West 3.5 mph - N/A   Clear
3:52 AM 32.0 °F 27.5 °F 19.0 °F 59% 30.24 in 10.0 mi Variable 4.6 mph - N/A   Clear
4:52 AM 32.0 °F 28.7 °F 19.0 °F 59% 30.27 in 10.0 mi WNW 3.5 mph - N/A   Clear
5:52 AM 30.0 °F - 19.0 °F 64% 30.30 in 10.0 mi Calm Calm - N/A   Clear
6:52 AM 28.9 °F - 21.0 °F 72% 30.33 in 10.0 mi Calm Calm - N/A   Clear
7:52 AM 30.9 °F - 19.9 °F 64% 30.35 in 8.0 mi Calm Calm - N/A   Clear
8:52 AM 33.1 °F - 19.9 °F 59% 30.37 in 10.0 mi Calm Calm - N/A   Clear
9:52 AM 36.0 °F 33.3 °F 19.9 °F 52% 30.38 in 10.0 mi Variable 3.5 mph - N/A   Clear
10:52 AM 37.9 °F 34.4 °F 19.0 °F 47% 30.38 in 10.0 mi North 4.6 mph - N/A   Clear
11:52 AM 39.9 °F 36.7 °F 19.0 °F 43% 30.37 in 10.0 mi Variable 4.6 mph - N/A   Clear
12:52 PM 39.9 °F 36.7 °F 19.0 °F 43% 30.35 in 10.0 mi West 4.6 mph - N/A   Clear
1:52 PM 41.0 °F 36.4 °F 18.0 °F 40% 30.35 in 10.0 mi WNW 6.9 mph - N/A   Clear
2:52 PM 41.0 °F 35.8 °F 19.9 °F 43% 30.36 in 10.0 mi NNW 8.1 mph - N/A   Clear
3:52 PM 39.9 °F - 21.0 °F 47% 30.38 in 10.0 mi Calm Calm - N/A   Clear
4:52 PM 37.0 °F - 21.0 °F 52% 30.39 in 10.0 mi Calm Calm - N/A   Clear
5:52 PM 33.1 °F - 23.0 °F 66% 30.40 in 10.0 mi Calm Calm - N/A   Clear
6:52 PM 30.9 °F - 24.1 °F 76% 30.41 in 10.0 mi Calm Calm - N/A   Clear
7:52 PM 30.9 °F - 24.1 °F 76% 30.41 in 10.0 mi Calm Calm - N/A   Clear
8:52 PM 30.0 °F - 24.1 °F 79% 30.42 in 10.0 mi Calm Calm - N/A   Clear
9:52 PM 28.9 °F - 23.0 °F 78% 30.44 in 10.0 mi Calm Calm - N/A   Clear
10:52 PM 28.9 °F 25.2 °F 23.0 °F 78% 30.44 in 10.0 mi ENE 3.5 mph - N/A   Clear
11:52 PM 28.9 °F - 24.1 °F 82% 30.44 in 9.0 mi Calm Calm - N/A   Clear